MOZHAYETS 4 (RS-22)

Last updated on Thu Nov 21 2024 00:03:02 GMT+0000 (Coordinated Universal Time)

1 27939U 03042A 24325.57379080 .00002855 00000+0 47132-3 0 9993 2 27939 98.3074 124.5671 0010702 288.0199 109.9023 14.71204315131137
UTC large
Height (km)
Speed (km/s)
/
Latitude / Longitude
Inclination (degrees)
Orbital Period (minutes)
Azimuth
Elevation
Range (km)
Doppler Factor

Next 0 passes for location: London (51.5072 / 0.1276)

Sorry there are no passes over London.